DK4DAX-2 Weather Reports


time (UTC)temp
C
wind
direction
speed
KPH
gust
KPH
rain 1hr
cm
rain 24hr
cm
rain mn
cm
humidity
%
barometer
mb
20260507054502 10 267 0.0 6.4 0.00 0.00 0.00 89 1006.2
20260507053003 10 135 0.0 1.6 0.00 0.00 0.00 90 1006.1
20260507051502 10 185 0.0 3.2 0.00 0.00 0.00 90 1006.0
20260507050002 10 286 1.6 3.2 0.00 0.00 0.00 89 1005.7
20260507044502 10 0 0.0 0.0 0.00 0.00 0.00 89 1005.4
20260507043002 10 90 0.0 1.6 0.00 0.00 0.00 89 1005.4
20260507041502 10 0 0.0 0.0 0.00 0.00 0.00 88 1005.4
20260507040003 10 0 0.0 0.0 0.00 0.00 0.00 88 1005.1
20260507034502 10 0 0.0 0.0 0.00 0.00 0.00 87 1005.2
20260507033002 10 0 0.0 0.0 0.00 0.00 0.00 87 1005.3
20260507031502 10 0 0.0 0.0 0.00 0.00 0.00 86 1005.1
20260507030002 10 0 0.0 0.0 0.00 0.00 0.00 87 1005.0
20260507024502 10 0 0.0 0.0 0.00 0.00 0.00 87 1005.0
20260507023002 10 0 0.0 0.0 0.00 0.00 0.00 87 1004.8
20260507021502 10 0 0.0 0.0 0.00 0.00 0.00 87 1004.9
20260507020003 10 90 0.0 4.8 0.00 0.03 0.00 88 1004.5
20260507014502 10 135 0.0 1.6 0.00 0.03 0.00 89 1004.3
20260507013002 10 0 0.0 0.0 0.00 0.03 0.00 90 1004.4
20260507011502 10 0 0.0 0.0 0.00 0.03 0.00 91 1004.3
20260507010003 10 0 0.0 0.0 0.00 0.03 0.00 92 1004.2
20260507004502 10 0 0.0 0.0 0.00 0.03 0.00 92 1004.3
20260507003002 10 0 0.0 0.0 0.00 0.03 0.00 92 1004.3
20260507001502 10 0 0.0 0.0 0.00 0.03 0.00 92 1003.9
20260507000003 10 0 0.0 0.0 0.00 0.03 0.00 93 1003.9
20260506234502 10 0 0.0 0.0 0.00 0.03 0.00 93 1004.0
20260506233002 10 0 0.0 0.0 0.00 0.03 0.00 93 1004.0
20260506231502 10 0 0.0 0.0 0.00 0.03 0.00 94 1003.8
20260506230002 10 157 0.0 1.6 0.00 0.03 0.00 94 1003.9
20260506224502 10 200 0.0 3.2 0.00 0.03 0.00 95 1003.7
20260506223002 10 135 0.0 3.2 0.00 0.03 0.00 95 1003.6
20260506221502 10 205 0.0 3.2 0.00 0.03 0.00 95 1003.5
20260506220004 10 137 0.0 3.2 0.00 0.03 0.00 96 1003.4
20260506214502 10 135 0.0 1.6 0.00 0.03 0.03 96 1003.3
20260506213002 10 0 0.0 0.0 0.00 0.03 0.03 97 1003.1
20260506211502 10 214 0.0 3.2 0.00 0.03 0.03 97 1003.0
20260506210003 10 130 0.0 3.2 0.00 0.03 0.03 97 1002.9
20260506204502 10 111 0.0 4.8 0.00 0.03 0.03 97 1002.7
20260506203002 10 112 0.0 1.6 0.00 0.03 0.03 97 1002.8
20260506201503 10 135 0.0 3.2 0.00 0.03 0.03 96 1002.7
20260506200003 10 90 0.0 3.2 0.00 0.03 0.03 96 1002.9
20260506194502 10 0 0.0 0.0 0.00 0.03 0.03 95 1002.3
20260506193003 10 217 0.0 1.6 0.00 0.03 0.03 94 1002.3
20260506191502 10 137 0.0 1.6 0.00 0.03 0.03 93 1002.1
20260506190002 10 204 0.0 1.6 0.00 0.03 0.03 93 1002.2
20260506184503 10 0 0.0 0.0 0.00 0.03 0.03 93 1002.0
20260506183002 11 0 0.0 0.0 0.00 0.03 0.03 93 1001.8
20260506181502 11 0 0.0 0.0 0.00 0.03 0.03 91 1001.5
20260506180003 11 0 0.0 0.0 0.00 0.03 0.03 91 1001.5
20260506174502 11 135 0.0 1.6 0.00 0.03 0.03 91 1001.3
20260506173002 11 90 0.0 1.6 0.00 0.03 0.03 92 1001.2
20260506171502 11 0 0.0 0.0 0.00 0.03 0.03 92 1001.3
20260506170003 11 165 0.0 1.6 0.00 0.03 0.03 92 1001.2
20260506164502 11 1 0.0 1.6 0.00 0.03 0.03 92 1000.9
20260506163002 11 245 0.0 6.4 0.00 0.03 0.03 91 1000.9
20260506161503 11 270 0.0 1.6 0.00 0.03 0.03 91 1000.8
20260506160002 11 134 0.0 3.2 0.00 0.03 0.03 91 1000.7
20260506154503 11 170 0.0 1.6 0.00 0.03 0.03 91 1000.6
20260506153002 11 200 0.0 3.2 0.00 0.03 0.03 90 1000.7
20260506151502 12 141 1.6 3.2 0.00 0.03 0.03 89 1000.7
20260506150003 12 173 0.0 4.8 0.00 0.03 0.03 88 1000.4
20260506144502 11 123 1.6 3.2 0.00 0.03 0.03 89 1000.5
20260506143002 12 333 0.0 6.4 0.00 0.03 0.03 88 1000.5
20260506141503 12 121 0.0 3.2 0.00 0.03 0.03 88 1000.3
20260506140002 12 27 0.0 3.2 0.00 0.03 0.03 88 1000.2
20260506134502 12 126 0.0 6.4 0.00 0.03 0.03 88 1000.2
20260506133003 12 124 0.0 3.2 0.00 0.03 0.03 89 1000.2
20260506131503 12 112 0.0 3.2 0.00 0.03 0.03 87 1000.3
20260506130003 12 270 0.0 3.2 0.00 0.03 0.03 87 1000.1
20260506124503 12 155 0.0 3.2 0.00 0.03 0.03 88 999.6
20260506123003 12 145 3.2 3.2 0.00 0.03 0.03 88 999.7
20260506121502 13 0 0.0 0.0 0.00 0.03 0.03 88 999.8
20260506120003 12 83 0.0 3.2 0.00 0.03 0.03 88 999.8
20260506114502 12 140 0.0 4.8 0.00 0.03 0.03 86 999.4
20260506113002 13 183 1.6 4.8 0.00 0.03 0.03 86 999.3
20260506111502 13 123 0.0 3.2 0.00 0.03 0.03 89 999.2
20260506110003 13 237 0.0 4.8 0.00 0.03 0.03 91 999.0
20260506104502 13 172 0.0 3.2 0.00 0.03 0.03 92 999.1
20260506103003 12 200 0.0 3.2 0.00 0.03 0.03 91 999.1
20260506101503 13 139 0.0 3.2 0.00 0.03 0.03 92 998.9
20260506100002 13 205 0.0 3.2 0.00 0.03 0.03 93 998.7
20260506094503 13 225 0.0 1.6 0.00 0.03 0.03 94 998.8
20260506093003 13 90 0.0 1.6 0.00 0.03 0.03 94 998.6
20260506091502 12 314 0.0 1.6 0.00 0.03 0.03 95 998.4
20260506090003 12 225 0.0 3.2 0.00 0.03 0.03 96 998.6
20260506084502 12 0 0.0 0.0 0.00 0.03 0.03 97 998.4
20260506083002 12 135 0.0 1.6 0.00 0.03 0.03 97 998.5
20260506081502 12 181 0.0 3.2 0.00 0.03 0.03 97 998.0
20260506073003 12 0 0.0 0.0 0.00 0.03 0.03 97 997.8
20260506071503 12 0 0.0 0.0 0.00 0.03 0.03 97 998.1
20260506061502 12 0 0.0 0.0 0.00 0.03 0.03 97 997.7